Location: Unspecified
(0.0000°N, 0.0000°E)
Time: 03:48:32
(UTC+00:00)

deb r/b Ablestar - Pass Details

Date: 14 February 2026
Orbit: 903 x 2194 km, 67.6° (Epoch: 11 March)

Event Time Altitude Azimuth Distance (km) Brightness Sun altitude
Rises 20:16:38 0° 207° (SSW) 4,835 ? -29.8°
Reaches altitude 10° 20:20:05 10° 210° (SSW) 3,653 ? -30.6°
Maximum altitude 20:28:28 56° 286° (WNW) 1,422 ? -32.6°
Enters shadow 20:30:54 39° 341° (NNW) 1,645 ? -33.2°
